sat.trackr.live / text

‹ back to catalog

HULIANWANG DIGUI-144

NORAD 67442 · 2026-007H

PAYLOAD ACTIVE UNKNOWN

§ Identity

Operator
Country
PRC
Launch date
2026-01-13
Launch site
WSC
Launch vehicle
Mass (kg)
RCS (m²)

External: N2YO · Heavens-Above · Gunter

§ Orbital elements

Epoch: 2026-09-19T23:58:03.458496Z

Period
108.33 min
Inclination
50.0078°
Eccentricity
0.0000456
Mean motion
13.29330080 rev/d
Perigee alt
1,148.9 km
Apogee alt
1,149.6 km
Semi-major
7,527.4 km
B*
4.5849e-5
RAAN
105.5658°
Arg perigee
27.5194°
Mean anomaly
332.5702°
Rev number
3,340

§ Raw data

HULIANWANG DIGUI-1441 67442U 26007H   26262.99865114 -.00000103  00000+0  45849-4 0  99972 67442  50.0078 105.5658 0000456  27.5194 332.5702 13.29330080 33409

JSON: /api/v1/satellites/67442 · /tle

For live sub-satellite position, see the globe view (requires WebGL).

§ Visibility from observer

Set your observer location to see the next 7 days of passes ≥ 10°. The values pass through the URL so the page stays shareable.

No JS? Fill the form by hand. The geolocation button needs JavaScript.